[[{"header":{"parameterUnit":"m.s-1","parameterCategory":1,"la1":30.2991,"la2":30.254,"lo1":-89.0895,"lo2":-89.0444,"dy":0.0017,"dx":0.0017,"nx":28,"ny":28,"refTime":"2023-09-21T09:00:00:Z","depth":0,"parameterNumber":2,"parameterNumberName":"U-component_of_WINDS"},"data":[0,0,0,0,0,0,0,0,0,0,0,0,0,0,0,0,0,0,0,0,0,0,0,0,0,0,0,0,0,0,0,0,0,0,0,0,0,0,0,0,0,0,0,0,0,0,0,0,0,0,0,0,0,0,0,0,0,0,-1.9702,-1.9701,0,-1.9574,-1.9572,-1.9571,-1.9428,-1.9426,-1.9424,-1.9422,-1.9291,-1.929,-1.9288,0,0,0,0,0,0,0,0,0,0,0,0,0,-1.9826,-1.9825,-1.9702,-1.9701,-1.9699,-1.9574,-1.9572,-1.957,-1.9429,-1.9426,-1.9424,-1.9421,-1.9292,-1.929,-1.9288,0,0,0,0,0,0,0,0,0,0,0,0,0,-1.9743,-1.9824,-1.9703,-1.9613,-1.9604,-1.9574,-1.9572,-1.957,-1.9429,-1.9426,-1.9423,-1.942,-1.9292,-1.929,-1.9288,-1.9336,0,0,-1.9281,-1.928,0,0,0,0,0,0,0,0,-1.9748,-1.9738,-1.9628,-1.9619,-1.9609,-1.9514,-1.9568,-1.9491,-1.943,-1.9496,-1.9422,-1.9419,-1.9368,-1.9359,-1.9342,-1.933,-1.9324,-1.9281,-1.9279,-1.9278,-1.9278,0,0,0,0,0,0,0,-1.9754,-1.9743,-1.9651,-1.9627,-1.9615,-1.958,-1.9565,-1.9552,-1.9451,-1.949,-1.9479,-1.9466,-1.9362,-1.9345,-1.9338,-1.9322,-1.9281,-1.9279,-1.9277,-1.9276,-1.9344,-1.9347,0,0,0,0,0,0,-1.9773,-1.9749,-1.9655,-1.9647,-1.9672,-1.958,-1.9563,-1.9548,-1.9451,-1.9433,-1.9469,-1.946,-1.935,-1.9341,-1.9333,-1.9383,-1.9278,-1.9276,-1.9275,-1.934,-1.9344,-1.9348,0,0,0,0,0,0,-1.9776,-1.9766,-1.9661,-1.9695,-1.9679,-1.9581,-1.9565,-1.9547,-1.9529,-1.9435,-1.9416,-1.9469,-1.9347,-1.9336,-1.9336,-1.9376,-1.9275,-1.9273,-1.9337,-1.9342,-1.9346,-1.9484,0,0,0,0,0,0,-1.978,-1.9768,-1.9785,-1.9697,-1.9678,-1.9666,-1.9567,-1.9546,-1.9525,-1.9512,-1.943,-1.9414,-1.9344,-1.934,-1.9334,-1.9371,-1.9271,-1.9333,-1.9339,-1.9344,-1.9475,-1.9493,-1.9507,0,0,0,0,0,-1.9785,-1.9828,-1.9786,-1.9776,-1.9697,-1.9669,-1.9658,-1.9577,-1.9529,-1.9545,-1.9485,-1.9416,-1.9373,-1.9342,-1.9333,-1.937,-1.933,-1.9337,-1.9344,-1.9468,-1.9489,-1.9507,0,0,0,0,0,0,-1.9924,-1.9815,-1.9767,-1.9783,-1.9737,-1.9645,-1.9663,-1.9602,-1.9568,-1.9557,-1.9458,-1.944,-1.9453,-1.9411,-1.9378,-1.9412,-1.9342,-1.9347,-1.9439,-1.9458,-1.9474,-1.9484,-1.9269,0,0,0,0,0,-1.9956,-1.9942,-1.9848,-1.9872,-1.9851,-1.9762,-1.9746,-1.9688,-1.9635,-1.9615,-1.9554,-1.9506,-1.9481,-1.9467,-1.9439,-1.9468,-1.9449,-1.949,-1.9506,-1.952,-1.9526,-1.9539,-1.9557,-1.9371,-1.9371,-1.9371,0,0,-2.0023,-1.9962,-1.9959,-1.9898,-1.9855,-1.9843,-1.9746,-1.9737,-1.9727,-1.9613,-1.961,-1.9564,-1.9504,-1.9519,-1.9523,-1.9485,-1.9573,-1.9529,-1.9541,-1.9539,-1.9549,-1.9566,-1.9582,-1.9376,-1.9375,-1.9374,0,0,-2.0139,-2.0092,-2.0106,-2.0065,-2.0001,-1.9941,-1.9945,-1.9863,-1.9828,-1.9823,-1.9737,-1.9725,-1.9685,-1.9645,-1.962,-1.9723,-1.9659,-1.9717,-1.9802,-1.9816,-1.983,-1.9843,-1.988,-1.9895,-1.9723,-1.9724,-1.9724,0,-2.023,-2.0209,-2.0121,-2.0118,-2.0094,-1.999,-2.0005,-1.9969,-1.99,-1.9886,-1.9844,-1.9792,-1.9744,-1.9749,-1.9775,-1.9758,-1.9759,-1.9726,-1.9835,-1.9847,-1.9857,-1.9892,-1.9906,-1.9731,-1.973,-1.973,-1.9729,0,-2.0325,-2.0311,-2.0331,-2.0267,-2.0244,-2.0251,-2.0164,-2.0153,-2.0097,-2.0042,-2.0039,-1.9978,-1.9936,-1.9933,-1.9878,-1.9931,-1.991,-1.9853,-1.978,-1.9884,-1.9915,-1.9927,-1.9742,-1.9739,-1.9737,-1.9735,0,0,-2.0524,-2.0412,-2.042,-2.039,-2.0312,-2.03,-2.0302,-2.0261,-2.0254,-2.021,-2.0209,-2.0178,-2.0125,-2.0097,-2.0037,-2.0049,-2.0136,-1.9991,-1.9988,-2.0021,-2.0191,-2.0234,-2.0251,-2.0093,-2.0095,-2.0097,-2.0196,0,-2.0626,-2.0622,-2.0544,-2.0563,-2.055,-2.0451,-2.0453,-2.0406,-2.0355,-2.0337,-2.028,-2.026,-2.0192,-2.0175,-2.0183,-2.0124,-2.0169,-2.0115,-2.0092,-2.0092,-2.011,-2.0267,-2.0312,-2.0409,-2.0208,-2.021,-2.0211,0,-2.0745,-2.0708,-2.0726,-2.0648,-2.064,-2.0642,-2.0599,-2.0583,-2.0528,-2.049,-2.046,-2.0392,-2.0388,-2.032,-2.0315,-2.028,-2.0266,-2.0236,-2.0238,-2.0233,-2.0158,-2.0267,-2.0438,-2.0453,-2.0229,-2.0228,-2.0226,0,-2.089,-2.0844,-2.0849,-2.0826,-2.0735,-2.074,-2.0702,-2.0644,-2.0625,-2.0588,-2.0574,-2.0538,-2.0518,-2.0491,-2.0415,-2.0372,-2.0419,-2.0344,-2.0388,-2.039,-2.0402,-2.0403,-2.0575,-2.0393,-2.0393,-2.0393,-2.0392,0,-2.1012,-2.1027,-2.0913,-2.0916,-2.0929,-2.084,-2.0856,-2.0809,-2.0758,-2.0751,-2.0664,-2.0659,-2.0559,-2.0543,-2.0483,-2.0489,-2.048,-2.045,-2.0434,-2.0458,-2.0462,-2.0447,-2.0439,-2.0396,-2.0396,-2.0395,-2.0394,0,-2.1176,-2.11,-2.1098,-2.1013,-2.0992,-2.1006,-2.0933,-2.0933,-2.0877,-2.0869,-2.0862,-2.0774,-2.0751,-2.0673,-2.063,-2.059,-2.0614,-2.0583,-2.0633,-2.0623,-2.0671,-2.0668,-2.084,-2.0858,-2.0666,-2.0668,-2.067,0,-2.1259,-2.1268,-2.1184,-2.1173,-2.1139,-2.1122,-2.1102,-2.1015,-2.0998,-2.0937,-2.0944,-2.0914,-2.0885,-2.0853,-2.0786,-2.0753,-2.0721,-2.0783,-2.0715,-2.074,-2.0722,-2.0723,-2.0724,-2.0798,-2.0801,-2.0803,-2.0805,0,-2.1416,-2.1378,-2.1352,-2.1315,-2.1294,-2.126,-2.122,-2.1216,-2.1119,-2.1104,-2.1079,-2.1057,-2.1014,-2.0985,-2.0942,-2.0904,-2.0839,-2.0827,-2.0835,-2.086,-2.0888,-2.0874,-2.0674,-2.0823,-2.0821,-2.082,-2.0819,-2.0818,-2.1542,-2.1546,-2.1487,-2.1462,-2.1424,-2.139,-2.1385,-2.1329,-2.1307,-2.1265,-2.1214,-2.1196,-2.1141,-2.1076,-2.1043,-2.1028,-2.0992,-2.1005,-2.1008,-2.1012,-2.1024,-2.0891,-2.102,-2.1019,-2.1019,-2.1018,-2.1018,0,-2.1694,-2.1652,-2.163,-2.1578,-2.1559,-2.1499,-2.1453,-2.1441,-2.1426,-2.138,-2.1354,-2.1326,-2.1298,-2.123,-2.1196,-2.1197,-2.1166,-2.1191,-2.119,-2.1183,-2.1058,-2.1054,-2.1216,-2.1216,-2.1216,-2.1216,-2.1216,-2.1216,-2.1771,-2.1775,-2.173,-2.1714,-2.1672,-2.1653,-2.1632,-2.16,-2.1563,-2.1536,-2.1513,-2.1468,-2.1414,-2.1375,-2.1347,-2.1328,-2.1319,-2.1354,-2.1326,-2.121,-2.1191,-2.1173,-2.1169,-2.1353,-2.1353,-2.1451,-2.1452,-2.1453]},{"header":{"parameterUnit":"m.s-1","parameterCategory":1,"la1":30.2991,"la2":30.254,"lo1":-89.0895,"lo2":-89.0444,"dy":0.0017,"dx":0.0017,"nx":28,"ny":28,"refTime":"2023-09-21T09:00:00:Z","depth":0,"parameterNumber":3,"parameterNumberName":"V-component_of_WINDS"},"data":[0,0,0,0,0,0,0,0,0,0,0,0,0,0,0,0,0,0,0,0,0,0,0,0,0,0,0,0,0,0,0,0,0,0,0,0,0,0,0,0,0,0,0,0,0,0,0,0,0,0,0,0,0,0,0,0,0,0,0.3816,0.3816,0,0.3763,0.3762,0.3762,0.3751,0.3751,0.3751,0.3752,0.3699,0.3697,0.3695,0,0,0,0,0,0,0,0,0,0,0,0,0,0.3911,0.3909,0.3816,0.3816,0.3815,0.3763,0.3762,0.3761,0.3751,0.3751,0.3752,0.3752,0.3699,0.3697,0.3695,0,0,0,0,0,0,0,0,0,0,0,0,0,0.3865,0.3908,0.3816,0.3803,0.3801,0.3763,0.3762,0.3761,0.375,0.3751,0.3752,0.3752,0.37,0.3697,0.3695,0.3666,0,0,0.3686,0.3685,0,0,0,0,0,0,0,0,0.3867,0.3861,0.3806,0.3804,0.3802,0.3764,0.3776,0.3729,0.375,0.377,0.3752,0.3753,0.372,0.3716,0.3704,0.3663,0.3661,0.3686,0.3685,0.3683,0.3683,0,0,0,0,0,0,0,0.3871,0.3864,0.3795,0.3805,0.3803,0.3801,0.3795,0.3767,0.3742,0.3768,0.3767,0.3761,0.3719,0.3707,0.3703,0.366,0.3686,0.3684,0.3682,0.3681,0.3593,0.3592,0,0,0,0,0,0,0.3876,0.3866,0.3797,0.3794,0.3837,0.3798,0.3792,0.3776,0.3743,0.3738,0.3761,0.3761,0.3711,0.3706,0.3701,0.3664,0.3683,0.3681,0.3679,0.3594,0.3593,0.3592,0,0,0,0,0,0,0.3878,0.387,0.3799,0.383,0.382,0.3796,0.3778,0.3774,0.3762,0.3737,0.3732,0.3753,0.3712,0.3705,0.3675,0.3662,0.368,0.3677,0.3594,0.3593,0.3592,0.3591,0,0,0,0,0,0,0.3881,0.3871,0.3859,0.3829,0.3819,0.3773,0.3777,0.3773,0.3757,0.3757,0.3728,0.3724,0.3712,0.3679,0.3672,0.3659,0.3675,0.3595,0.3594,0.3593,0.3592,0.359,0.3588,0,0,0,0,0,0.3884,0.3861,0.3858,0.385,0.3804,0.3772,0.3766,0.3752,0.3756,0.3745,0.3728,0.3725,0.3665,0.3676,0.3668,0.3654,0.3596,0.3594,0.3593,0.3593,0.3591,0.3588,0,0,0,0,0,0,0.389,0.3857,0.3853,0.382,0.3799,0.377,0.3755,0.375,0.3727,0.3728,0.3712,0.3705,0.3676,0.3662,0.3674,0.3624,0.3631,0.3628,0.3634,0.3631,0.3629,0.3633,0.3673,0,0,0,0,0,0.3888,0.3864,0.3837,0.381,0.38,0.3779,0.3765,0.3756,0.3733,0.3724,0.3706,0.3685,0.3661,0.3646,0.3623,0.3591,0.3584,0.3578,0.3576,0.3574,0.3571,0.3553,0.3549,0.3586,0.3586,0.3586,0,0,0.3882,0.3861,0.3848,0.3811,0.3793,0.377,0.3772,0.3747,0.3729,0.3721,0.369,0.3676,0.3652,0.362,0.3605,0.3608,0.356,0.3572,0.3571,0.3569,0.355,0.3547,0.3544,0.3585,0.3585,0.3586,0,0,0.386,0.3842,0.3817,0.38,0.3773,0.3759,0.3754,0.3726,0.3716,0.3685,0.3678,0.3658,0.3617,0.36,0.3585,0.3557,0.3552,0.355,0.354,0.3522,0.3519,0.3516,0.3505,0.3501,0.3548,0.3548,0.3548,0,0.3856,0.382,0.3806,0.378,0.3764,0.3756,0.3731,0.3715,0.3682,0.3671,0.3675,0.3624,0.3607,0.3571,0.3564,0.3553,0.3545,0.3552,0.352,0.3518,0.3515,0.3504,0.35,0.3547,0.3547,0.3547,0.3547,0,0.3816,0.3791,0.3775,0.3742,0.3725,0.37,0.3682,0.3667,0.366,0.3646,0.3615,0.3594,0.3566,0.3558,0.3551,0.352,0.3522,0.3524,0.3529,0.3511,0.35,0.3496,0.3547,0.3547,0.3547,0.3547,0,0,0.3795,0.3755,0.3749,0.3734,0.3704,0.3685,0.366,0.3632,0.3618,0.3597,0.3575,0.3542,0.3542,0.3526,0.3518,0.3502,0.348,0.3505,0.3504,0.35,0.3443,0.3441,0.3437,0.3477,0.3476,0.3476,0.3445,0,0.3767,0.3721,0.3708,0.3669,0.3646,0.3638,0.3616,0.3596,0.3583,0.3561,0.3548,0.3523,0.3527,0.3517,0.3501,0.3486,0.3468,0.3488,0.3456,0.3455,0.3461,0.3431,0.3429,0.3401,0.3441,0.344,0.344,0,0.3728,0.3705,0.3664,0.3637,0.3626,0.3607,0.358,0.356,0.3537,0.3529,0.3511,0.3504,0.3478,0.3487,0.345,0.3464,0.3451,0.3442,0.344,0.3435,0.3445,0.3424,0.3392,0.3387,0.3433,0.3434,0.3434,0,0.3715,0.3673,0.3643,0.3631,0.3599,0.3585,0.3571,0.3549,0.3533,0.3511,0.35,0.3475,0.3461,0.3442,0.3428,0.3436,0.3393,0.3401,0.3385,0.3385,0.3374,0.3375,0.3337,0.3369,0.3369,0.3369,0.3369,0,0.3684,0.3659,0.3636,0.3617,0.3589,0.3575,0.3547,0.3533,0.3514,0.3492,0.3485,0.3465,0.3449,0.3427,0.3417,0.3388,0.3382,0.3374,0.3371,0.3374,0.3374,0.3363,0.3364,0.3368,0.3368,0.3368,0.3369,0,0.3663,0.3647,0.3613,0.3586,0.3578,0.3559,0.3535,0.3517,0.3504,0.3477,0.347,0.345,0.3424,0.3409,0.3377,0.3369,0.3337,0.3336,0.3344,0.3342,0.3326,0.3327,0.3279,0.3271,0.3309,0.3309,0.3309,0,0.3644,0.3624,0.3594,0.3579,0.3565,0.3541,0.3524,0.351,0.3494,0.3466,0.3451,0.3425,0.3402,0.3361,0.3344,0.3319,0.3316,0.3301,0.3312,0.3315,0.3313,0.3314,0.3311,0.3298,0.3298,0.3298,0.3297,0,0.361,0.3603,0.358,0.3553,0.3534,0.3512,0.3491,0.348,0.3462,0.3444,0.3417,0.34,0.3366,0.3339,0.3313,0.3299,0.3295,0.3294,0.3289,0.329,0.3295,0.329,0.3336,0.3295,0.3295,0.3295,0.3295,0.3296,0.3588,0.357,0.3546,0.352,0.3502,0.3483,0.3464,0.3449,0.3426,0.3397,0.3391,0.3362,0.334,0.3304,0.3289,0.3267,0.3269,0.3262,0.326,0.3257,0.3256,0.33,0.3262,0.3262,0.3262,0.3262,0.3263,0,0.3553,0.3537,0.3513,0.3484,0.3463,0.3462,0.3438,0.3421,0.3396,0.3375,0.3353,0.3322,0.3296,0.3278,0.3251,0.3237,0.3234,0.323,0.323,0.3227,0.3256,0.3262,0.3233,0.3233,0.3233,0.3233,0.3233,0.3233,0.3532,0.35,0.3491,0.3451,0.3436,0.3407,0.3393,0.3375,0.3359,0.3324,0.3302,0.329,0.327,0.3243,0.3219,0.3214,0.3204,0.32,0.3195,0.3222,0.3225,0.3228,0.3234,0.3199,0.3199,0.3167,0.3167,0.3167]}]]